Location: Ladd Observatory
(41.8387°N, 71.3996°W)
Time: 16:47:42
(UTC-04:00)

Daily predictions for brighter satellites

Satellite Brightness Start Highest point End
(mag) Time Altitude Azimuth Time Altitude Azimuth Time Altitude Azimuth
Cosmos 1151 Rocket 3.9 20:53:13 10° N 20:57:09 34° ENE 21:01:05 10° SE
Cosmos 1538 Rocket 4.2 20:58:31 10° NNW 21:03:52 80° WSW 21:09:13 10° SSE
Cosmos 1680 Rocket 4.3 20:59:19 10° N 21:04:11 37° ENE 21:09:03 10° SE
OE (NEXTSAT) 4.4 21:02:57 10° WNW 21:06:33 76° SSW 21:10:07 10° ESE
Cosmos 923 Rocket 4.4 21:02:53 10° N 21:07:58 51° ENE 21:13:01 10° SE
CZ-2C R/B 0.5 21:07:22 10° S 21:08:59 46° W 21:10:37 10° NNW
Meteor 2-20 4.5 21:06:42 10° S 21:12:47 68° E 21:18:52 10° NNE
Cosmos 2058 4.3 21:09:59 10° SE 21:13:05 21° E 21:16:11 10° NE
Cosmos 2219 4.1 21:08:12 10° SSE 21:13:06 30° ESE 21:18:02 10° NE
CZ-4B R/B 4.4 21:08:39 10° NE 21:13:20 32° E 21:17:57 10° SSE
H-2A R/B 2.3 21:12:27 10° S 21:16:59 77° WSW 21:21:32 10° NNW
Cosmos 1328 Rocket 4.2 21:16:01 10° NNW 21:20:23 56° W 21:24:43 10° S
Terra 3.9 21:18:00 10° E 21:20:24 14° ENE 21:22:48 10° NNE
USA 229 DEB 3.7 21:13:33 10° SSW 21:20:27 83° SE 21:27:30 10° NE
USA 229 3.7 21:13:39 10° SSW 21:20:33 82° SE 21:27:36 10° NE
Cosmos 2322 3.9 21:15:23 10° NNW 21:21:04 60° ENE 21:26:17 12° SE
Cosmos 2237 Rocket 4.4 21:18:57 10° NNE 21:21:31 13° NE 21:24:05 10° ENE
Cosmos 1441 Rocket 3.6 21:19:00 10° SSW 21:22:45 64° W 21:26:30 10° N
S3M 4.5 21:18:42 10° NNW 21:24:43 61° W 21:30:43 10° S
Cosmos 2322 Rocket 3.1 21:19:59 10° NW 21:25:18 45° WSW 21:30:36 10° S
Cosmos 1726 3.9 21:23:15 10° NNE 21:25:56 18° ENE 21:28:05 12° ESE
Cosmos 773 Rocket 4.0 21:22:14 10° NNW 21:27:28 85° WSW 21:32:41 10° SSE
CZ-4 SHROUD 3.2 21:24:44 12° SSE 21:27:38 73° ENE 21:30:47 10° N
SL-16 R/B 3.3 21:30:03 10° NW 21:35:18 40° WSW 21:40:32 10° S
Cosmos 2360 Rocket 2.2 21:30:03 10° NNW 21:35:43 80° ENE 21:40:35 14° SSE
NOSS 3-1 (A) 4.2 21:35:25 10° S 21:40:23 30° ESE 21:45:45 10° NE
ATLAS CENTAUR R/B 4.0 21:38:48 10° WNW 21:41:08 14° WSW 21:43:23 10° SW
SL-23 DEB 4.1 21:36:06 10° NW 21:41:22 71° NNE 21:43:59 17° ESE
Cosmos 1908 3.7 21:38:28 10° NNW 21:42:18 60° W 21:46:10 10° S
Aureole 3 4.4 21:43:18 10° S 21:50:13 80° E 21:55:46 10° N
MetOp-B 4.2 21:45:28 12° S 21:50:30 80° WSW 21:55:53 10° NNW
DELTA 2 R/B(2) 3.8 21:55:15 10° WSW 21:56:59 41° SSE 21:57:18 38° SE
Delta 2 Rocket 3.8 21:54:37 10° SW 21:57:36 26° S 21:58:00 26° SSE
Meteor 1-4 Rocket 3.8 21:55:04 10° NNE 21:58:22 28° ENE 21:59:48 22° ESE
FALCON 9 R/B 4.4 21:26:38 10° WSW 21:59:00 61° S 22:06:45 10° E
Cosmos 1674 4.0 21:55:35 10° SSW 21:59:13 41° WNW 22:02:54 10° N
Envisat 4.1 21:54:30 10° SSW 21:59:16 40° W 22:04:03 10° NNW
Cosmos 2242 Rocket 4.4 21:55:14 10° N 21:59:23 36° ENE 22:01:35 22° SE
SPOT 5 3.6 21:55:23 10° S 21:59:44 47° W 22:04:20 10° NNW
Cosmos 2227 Rocket 3.6 22:00:43 18° ESE 22:02:01 19° E 22:05:55 10° NE
ATLAS 2AS CENTAUR R/B 4.1 22:00:49 18° SE 22:03:11 21° ESE 22:08:41 10° ENE
SL-08 RB Rocket 3.7 22:02:37 23° SSE 22:05:23 69° ENE 22:09:52 10° N
Cosmos 1626 4.1 22:05:29 15° E 22:05:41 15° E 22:07:50 10° NE
DELTA 2 DEB (DPAF) 4.4 22:05:05 24° SE 22:07:35 56° ENE 22:12:00 10° N
Cosmos 1300 2.6 22:05:09 10° N 22:09:01 81° E 22:11:00 27° SSE
Cosmos 2112 Rocket 4.2 22:03:58 10° NNW 22:09:10 70° WSW 22:12:50 20° S
Cosmos 2333 Rocket 3.4 22:04:32 10° N 22:09:36 31° NE 22:13:11 17° ESE
USA 245 2.8 22:10:34 30° SSW 22:11:33 50° WSW 22:13:55 10° NNW
Cosmos 1437 4.2 22:09:26 10° SW 22:12:30 37° WNW 22:15:36 10° N
Cosmos 2298 Rocket 4.1 22:07:58 14° S 22:12:31 62° ESE 22:17:46 10° NNE
SL-16 R/B 4.4 22:10:22 10° NNE 22:13:31 15° NE 22:16:39 10° E
DELTA 2 R/B (1) 3.9 22:08:18 10° W 22:13:36 47° SSW 22:16:24 26° SE
CARTOSAT-1 4.0 22:17:10 28° SE 22:19:02 48° ENE 22:23:11 10° N
Cosmos 2315 Rocket 4.3 22:14:16 10° NNW 22:20:25 64° W 22:25:34 15° S
Cosmos 1937 Rocket 3.9 22:18:23 26° SSE 22:20:55 44° ESE 22:25:52 10° NNE
COSMOS 2428 2.7 22:15:47 10° NNW 22:21:30 90° WSW 22:24:46 27° SSE
Sich 1 3.0 22:20:01 23° S 22:22:42 81° E 22:27:07 10° N
ATLAS 3B R/B 4.3 22:16:50 10° NNW 22:22:45 27° NE 22:28:21 10° E
Cosmos 1633 Rocket 3.0 22:21:04 25° S 22:23:35 78° E 22:27:58 10° N
YAOGAN 6 4.1 22:23:27 15° SSW 22:25:54 30° W 22:29:09 10° NNW
NOSS 3-1 (C) 3.3 22:21:58 10° SSW 22:27:49 84° ESE 22:34:22 10° NE
Cosmos 2297 Rocket 3.4 22:28:39 22° ESE 22:29:22 23° E 22:33:40 10° NE
CZ-4C R/B 2.9 22:29:16 41° S 22:30:23 82° WSW 22:33:52 10° NNW
Cosmos 1455 3.1 22:28:25 10° NNE 22:31:51 32° ENE 22:32:31 30° E
H-2A R/B 2.1 22:29:35 29° SSE 22:32:21 75° ENE 22:37:47 10° N
Cosmos 990 Rocket 4.4 22:33:38 32° SE 22:35:13 41° ESE 22:40:02 10° NNE
Cosmos 2219 Rocket 2.3 22:32:33 10° NNW 22:38:07 63° ENE 22:40:43 32° SE
Lacrosse 4 Rocket 3.9 22:38:09 10° NNE 22:40:36 14° NE 22:43:05 10° E
ARGOS 3.8 22:37:03 19° SSW 22:40:38 48° W 22:45:52 10° NNW
Landsat 7 3.9 22:39:25 31° S 22:41:41 71° WSW 22:46:27 10° NNW
Nadezhda 1 Rocket 3.9 22:43:40 10° N 22:49:46 76° E 22:52:38 34° SSE
Cosmos 292 Rocket 3.7 22:47:16 10° NNW 22:52:03 82° WSW 22:53:38 42° S
Cosmos 1980 3.9 22:47:50 10° NNW 22:53:27 61° ENE 22:55:44 35° SE
Spot 4 3.8 22:52:29 41° SSE 22:54:12 84° ENE 22:59:06 10° NNW
Cosmos 2219 4.5 22:51:40 10° SW 22:57:04 41° WNW 23:02:31 10° N
Terra 1.9 22:55:46 38° S 22:57:33 70° WSW 23:02:19 10° NNW
SAR-Lupe-2 3.6 22:57:19 60° SSW 22:57:48 72° WSW 23:01:24 10° NNW
COSMOS 2455 4.0 22:53:52 10° NNW 22:59:20 34° NE 23:02:42 20° E
Cosmos 1703 3.7 22:58:43 35° SW 23:00:07 56° W 23:03:59 10° N
Cosmos 1898 Rocket 4.0 22:56:18 14° SW 23:00:42 58° WNW 23:05:51 10° NNE
Cosmos 1726 3.8 22:58:05 10° NNW 23:01:20 28° W 23:02:46 22° SW
Cosmos 1745 Rocket 4.0 22:57:28 24° SSW 23:01:22 77° W 23:07:35 10° N
Cosmos 1271 Rocket 3.4 22:58:38 10° NNW 23:02:18 46° W 23:03:14 37° SW
Spot 2 4.4 23:00:09 10° NNE 23:05:18 84° WNW 23:07:27 35° SSW
Cosmos 1346 3.5 23:07:04 61° N 23:07:04 61° N 23:09:40 10° N
Cosmos 2237 Rocket 2.3 23:00:56 10° NNW 23:06:39 71° ENE 23:08:42 40° SE
Cosmos 1125 Rocket 4.2 23:06:14 34° ESE 23:06:43 35° E 23:11:29 10° NE
Cosmos 2082 3.7 23:07:20 38° S 23:09:33 69° ESE 23:15:15 10° NNE
Cosmos 1709 Rocket 4.1 23:07:48 38° SSE 23:09:52 56° E 23:15:49 10° NNE
CZ-4B R/B 4.1 23:10:23 11° ENE 23:10:33 11° ENE 23:11:38 10° NE
DMSP B5D2-2 4.4 23:07:06 10° N 23:12:17 64° WNW 23:15:08 26° SSW
Cosmos 1470 Rocket 3.8 23:11:47 39° SW 23:13:11 61° W 23:17:28 10° N
Cosmos 220 Rocket 4.5 23:12:13 30° SW 23:14:12 58° WNW 23:18:36 10° NNE
Cosmos 1933 Rocket 3.9 23:13:06 38° SW 23:14:37 62° W 23:19:03 10° N
IGS 5A 4.2 23:14:41 37° SW 23:15:38 44° W 23:19:40 10° NNW
Cosmos 1703 Rocket 4.1 23:12:48 10° N 23:16:59 43° ENE 23:17:24 41° E
SeaSat 1 3.0 23:15:33 36° ESE 23:17:08 50° ENE 23:21:55 10° NNW
Cosmos 2221 Rocket 4.2 23:13:06 10° N 23:17:27 42° ENE 23:18:03 40° E
Okean 1-7 4.3 23:14:42 10° NNE 23:18:24 27° ENE 23:18:43 27° E
Cosmos 2360 Rocket 4.5 23:16:12 10° WNW 23:18:56 14° W 23:21:39 10° SW
Cosmos 1933 3.6 23:18:28 10° N 23:22:27 52° E 23:22:33 52° E
NOSS 3-1 (A) 4.3 23:25:07 10° WSW 23:30:53 50° NW 23:37:20 10° NNE
NOSS 0 Rocket 4.2 23:25:21 10° NNW 23:31:23 58° WSW 23:33:20 41° SSW
Cosmos 2181 Rocket 4.0 23:25:11 10° N 23:31:34 73° E 23:33:42 44° SSE
Cosmos 192 4.3 23:34:24 10° NNW 23:39:18 71° WSW 23:40:02 60° SSW
CZ-4C R/B 4.2 23:40:38 35° NE 23:40:38 35° NE 23:43:28 10° N
Cosmos 1626 3.4 23:40:11 32° W 23:40:47 34° WNW 23:44:15 10° N
Cosmos 2227 Rocket 2.6 23:42:28 27° SW 23:45:31 60° WNW 23:51:09 10° NNE
Cosmos 468 4.5 23:41:38 10° NNW 23:46:59 78° WSW 23:47:58 59° S
ERBS 3.5 23:51:23 40° NNE 23:51:23 40° NNE 23:53:48 10° NE
Cosmos 2333 Rocket 2.9 23:48:36 10° NW 23:53:58 42° WSW 23:55:11 37° SW
